Regional Weather Roundup
Issued by NWS Kansas City/Pleasant Hill, MO

Home | Current Version | Previous Version | Graphics & Text | Print | Product List | Glossary Off
Versions: 1 2 3 4 5 6 7 8 9 10 11 12 13 14 15 16 17 18 19 20 21 22 23 24 25 26 27 28 29 30 31 32 33 34 35 36 37 38 39 40 41 42 43 44 45 46 47 48 49 50

478
ASUS43 KEAX 270710
RWREAX

WEATHER ROUNDUP FOR EASTERN KANSAS AND NORTHWEST MISSOURI
NATIONAL WEATHER SERVICE KANSAS CITY/PLEASANT HILL MO
200 AM CDT MON MAR 27 2017

KSZ040-057-103>105-MOZ028-029-037-043-270800-
...KANSAS CITY METROPOLITAN AREA...

CITY           SKY/WX    TMP DP  RH WIND       PRES   REMARKS
K.C. INTL      RAIN      46  45  96 E9        29.90F FOG
K.C. DOWNTOWN  HVY RAIN  48  45  89 NE8       29.90S FOG
LEES SUMMIT    LGT RAIN  48  46  93 N8        29.90R
OLATHE - IXD   HVY RAIN  47  46  97 NE12      29.87F FOG
OLATHE - OJC   RAIN      46  46 100 NE14      29.86F FOG
LAWRENCE       LGT RAIN  47  47 100 NE16      29.85F FOG

$$

MOZ001>008-011>017-020>025-030>033-038>040-044>046-053-054-270800-
...NORTHERN AND CENTRAL MISSOURI...

CITY           SKY/WX    TMP DP  RH WIND       PRES   REMARKS
ST. JOSEPH     LGT RAIN  46  45  96 N5        29.91F
MOSBY          LGT RAIN  46  43  87 CALM      29.92R
WARRENSBURG    CLOUDY    48  46  93 NE8       29.87F
WHITEMAN AFB   MOCLDY    49  49 100 E9        29.86F
CLINTON        CLOUDY    50  48  93 NE9       29.85F
SEDALIA        CLOUDY    51  49  92 E10       29.88F
WARSAW         NOT AVBL
CHILLICOTHE      N/A     48  44  86 CALM      29.93F
KIRKSVILLE     CLOUDY    47  44  90 N5        29.93S

$$

MOZ041-047>049-056>058-063>065-088>090-097-270800-
...EASTERN AND SOUTHERN MISSOURI...

CITY           SKY/WX    TMP DP  RH WIND       PRES   REMARKS
ST. LOUIS INTL CLOUDY    53  48  83 NE3       29.93F
SPIRIT OF STL  PTCLDY    50  49  96 CALM      29.92F
COLUMBIA       LGT RAIN  50  49  96 NE8       29.91F
JEFFERSON CITY CLOUDY    54  48  80 E6        29.89F
ROLLA          CLOUDY    53  50  89 E5        29.87F
OSAGE BEACH    LGT RAIN N/A N/A N/A CALM      29.90F
SPRINGFIELD    LGT RAIN  56  54  93 E14       29.78F
BRANSON          N/A     54  54 100 E9        29.81F
JOPLIN         HVY RAIN  57  56  96 W8        29.83R FOG
WEST PLAINS    CLOUDY    57  50  77 E6        29.85F

$$

IAZ060-094-KSZ022-034>040-054-083-096-NEZ052-066-093-270800-
...KANSAS...SOUTHEAST NEBRASKA AND IOWA...

CITY           SKY/WX    TMP DP  RH WIND       PRES   REMARKS
TOPEKA         LGT RAIN  46  46 100 NE14      29.83F
MANHATTAN      CLOUDY    47  45  93 NE8       29.88S
EMPORIA        CLOUDY    47  47 100 N10       29.82F FOG
CHANUTE        CLOUDY    53  50  89 E16G26    29.71F
WICHITA        CLOUDY    49  48  97 NW12      29.84R
OMAHA          CLOUDY    46  41  82 N6        29.91F
LINCOLN        CLOUDY    45  43  93 N8        29.93F
FALLS CITY     CLOUDY    47  44  90 E3        29.91F
LAMONI         CLOUDY    45  43  93 N7        29.90F
DES MOINES     CLOUDY    45  44  97 N3        29.93R FOG

$$





USA.gov is the U.S. government's official web portal to all federal, state and local government web resources and services.